Regional Weather Roundup
Issued by NWS

Home | Current Version | Previous Version | Text Only | Print | Product List | Glossary On
Versions: 1 2 3 4 5 6 7 8 9 10 11 12 13 14 15 16 17 18 19 20 21 22 23 24 25 26 27 28 29
000
ASUS46 KSEW 090110
RWRWA

WASHINGTON REGIONAL WEATHER ROUNDUP
NATIONAL WEATHER SERVICE SEATTLE WA
500 PM PST THU DEC 08 2016

NOTE:"FAIR" INDICATES FEW OR NO CLOUDS BELOW 12,000 FEET WITH NO
SIGNIFICANT WEATHER AND/OR OBSTRUCTIONS TO VISIBILITY.

WAZ507-509-555>559-090200-
SEATTLE, TACOMA, EVERETT, AND VICINITY

CITY           SKY/WX    TMP DP  RH WIND       PRES   REMARKS
EVERETT        CLOUDY    35  11  36 E12       29.95R WCI  27
BOEING FIELD   CLOUDY    37  15  40 SE13      29.96S
RENTON         CLOUDY    37  14  38 E10G21    29.95S
SEATAC AIRPORT CLOUDY    35  13  40 E15G21    29.93F WCI  25
JBLM-MCCHORD   NOT AVBL
PUYALLUP       CLOUDY    34  28  80 CALM      29.90F
BREMERTON      CLOUDY    34  19  55 N5        29.96F
JBLM-FT LEWIS  SNOW      32  32 100 SW3       29.91F VSB 1/2
TACOMA NARROWS CLOUDY    36  15  42 NE8       29.92F
$$

WAZ001-503-506-510-514-515-090200-
NORTH INTERIOR

CITY           SKY/WX    TMP DP  RH WIND       PRES   REMARKS
BELLINGHAM     MOCLDY    29   7  39 N17G29    30.01S WCI  17
FRIDAY HARBOR  PTCLDY    32  13  45 N7        30.00F
EASTSOUND      PTCLDY    32  12  43 NE12G22   30.00F WCI  23
PORT ANGELES   CLOUDY    32  21  64 SE9       29.93F
EDIZ HOOK      FAIR      37  25  62 SE12      29.95S
PORT TOWNSEND    N/A     30  25  80 CALM      29.97F
NAS WHIDBEY    CLOUDY    36  13  38 E8        30.02S
ARLINGTON      MOCLDY    30  16  55 CALM      30.00R
BURLINGTON     NOT AVBL
$$

WAZ020-022-039-040-504-511-512-090200-
SOUTHWEST INTERIOR

CITY           SKY/WX    TMP DP  RH WIND       PRES   REMARKS
SHELTON        LGT SNOW  32  25  75 NE9G18    29.90F
OLYMPIA        LGT SNOW  32  31  96 NE8       29.91F VSB 3/4
CHEHALIS       NOT AVBL
KELSO          FLURRIES  32  29  88 CALM      29.90S
VANCOUVER      CLOUDY    33  23  66 E14G22    29.90S WCI  23
SCAPPOOSE, OR  CLOUDY    30  28  92 NW3       29.91S FOG
PORTLAND, OR   CLOUDY    31  23  72 E25G36    29.88F WCI  17
$$

WAZ021-516-517-090200-
WASHINGTON COAST

CITY           SKY/WX    TMP DP  RH WIND       PRES   REMARKS
FORKS          CLOUDY    35  20  54 NE13G23   29.80F WCI  26
HOQUIAM        LGT SNOW  32  29  88 NE21G30   29.83S FOG     WCI  20
ASTORIA, OR    CLOUDY    35  28  75 E9        29.77F
$$

WAZ019-023-024-040-567>569-090200-
CASCADE MOUNTAINS AND COLUMBIA GORGE

CITY           SKY/WX    TMP DP  RH WIND       PRES   REMARKS
STAMPEDE PASS  LGT SNOW  11  10  96 VRB7G17   29.87R FOG
TROUTDALE, OR  CLOUDY    31  24  75 E20G30    29.92S WCI  19
THE DALLES, OR LGT SNOW  25  23  92 CALM      30.19S VSB 3/4
$$

WAZ026-027-041>044-520-521-090200-
EAST SLOPES

CITY           SKY/WX    TMP DP  RH WIND       PRES   REMARKS
OMAK           MOCLDY    21   7  54 N16       30.23F WCI   7
WENATCHEE      CLOUDY    24  12  60 N3        30.20S
ELLENSBURG     CLOUDY    25  10  53 SE13      30.11F WCI  14
YAKIMA         SNOW      24  21  88 N7        30.17F VSB 1/2
$$

WAZ028-034-035-090200-
COLUMBIA BASIN

CITY           SKY/WX    TMP DP  RH WIND       PRES   REMARKS
EPHRATA        CLOUDY    24  12  60 N6        30.18R
MOSES LAKE     CLOUDY    25  13  60 N7        30.18R
PASCO          LGT SNOW  26  23  88 NW7       30.21F VSB 3/4
HERMISTON, OR  LGT SNOW  23  21  92 CALM      30.16S FOG
$$

WAZ036>038-090200-
NORTHEAST WASHINGTON

CITY           SKY/WX    TMP DP  RH WIND       PRES   REMARKS
SPOKANE GEIGER CLOUDY    20   5  52 NE12      30.11F WCI   8
SPOKANE FELTS  MOCLDY    22   7  52 NE9       30.16F
FAIRCHILD AFB  NOT AVBL
COEURDALENE,ID MOCLDY    18   7  62 N15       30.16F WCI   4
DEER PARK      MOCLDY    19   2  47 NE13      30.17F WCI   6
$$

WAZ029>033-090200-
SOUTHEAST WASHINGTON

CITY           SKY/WX    TMP DP  RH WIND       PRES   REMARKS
PULLMAN        CLOUDY    23  14  68 E9        30.06F
LEWISTON, ID   CLOUDY    23  15  71 SW5       30.13F
WALLA WALLA    LGT SNOW  18  14  84 E5        30.11F VSB 3/4
PENDLETON, OR  LGT SNOW  17  14  88 S5        30.10S FOG
$$




USA.gov is the U.S. government's official web portal to all federal, state and local government web resources and services.